Location: Ahausen
(50.4985°N, 8.2722°E)
Time: 10:40:38
(UTC+00:00)

Resurs 1-3 - Pass Details

Date: 18 September 2020
Orbit: 631 x 632 km, 97.9° (Epoch: 30 October)

Event Time Altitude Azimuth Distance (km) Brightness Sun altitude
Exits shadow 20:01:13 32° 202° (SSW) 1,090 4.7 -23.0°
Maximum altitude 20:02:56 52° 260° (W) 794 4.3 -23.2°
Drops below altitude 10° 20:07:15 10° 337° (NNW) 2,026 7.0 -23.8°
Sets 20:09:31 0° 343° (NNW) 2,939 7.8 -24.1°
